Location: Hokitika
(42.7170°S, 170.9670°E)
Time: 14:01:52
(UTC+13:00)

ISS - Pass Details

Date: 30 January 2019
Orbit: 403 x 411 km, 51.6° (Epoch: 19 February)

Event Time Altitude Azimuth Distance (km) Brightness Sun altitude
Exits shadow 05:26:16 16° 337° (NNW) 1,190 -2.0 -11.5°
Maximum altitude 05:28:36 38° 41° (NE) 648 -2.8 -11.2°
Drops below altitude 10° 05:31:45 10° 111° (ESE) 1,496 0.4 -10.7°
Sets 05:33:56 0° 118° (ESE) 2,363 2.1 -10.4°
